Location: *
(48.8780°N, 19.2358°E)
Time: 00:30:27
(UTC+00:00)

Cosmos 1356 - Pass Details

Date: 18 October 2019
Orbit: 447 x 448 km, 81.1° (Epoch: 21 November)

Event Time Altitude Azimuth Distance (km) Brightness Sun altitude
Rises 17:18:48 0° 200° (SSW) 2,438 7.3 -15.6°
Reaches altitude 10° 17:20:53 10° 204° (SSW) 1,572 6.4 -15.9°
Maximum altitude 17:24:16 56° 284° (WNW) 540 4.1 -16.5°
Drops below altitude 10° 17:27:41 10° 4° (N) 1,587 6.2 -17.0°
Sets 17:29:47 0° 9° (N) 2,464 7.1 -17.4°
